{"data":{"norad_id":66763,"epoch":"2026-05-25T03:08:19.300416Z","epoch_age_seconds":67754,"freshness":"FRESH","line1":"1 66763U 25276DB  26145.13077894  .00002757  00000+0  16635-3 0  9991","line2":"2 66763  97.4206 218.2333 0013471  79.3651 280.9095 15.11468610 26865","mean_motion":15.1146861,"eccentricity":0.0013471,"inclination_deg":97.4206,"raan_deg":218.2333,"arg_perigee_deg":79.3651,"mean_anomaly_deg":280.9095,"bstar":0.00016635,"rev_number":2686,"period_min":95.271578283058,"perigee_km":522.41215732164,"apogee_km":541.02869519947,"semimajor_km":6909.8574262606,"source":"CELESTRAK","updated_at":"2026-05-25T13:38:06.455256Z"}}